Regional Weather Roundup
Issued by NWS Sioux Falls, SD

Home | Current Version | Previous Version | Graphics & Text | Print | Product List | Glossary On
Versions: 1 2 3 4 5 6 7 8 9 10 11 12 13 14 15 16 17 18 19 20 21 22 23 24 25 26 27 28 29 30 31 32 33 34 35 36 37 38 39 40 41 42 43 44 45 46 47 48 49 50
000
ASUS43 KFSD 230202
RWRFSD

WEATHER ROUNDUP FOR SE SOUTH DAKOTA/SW MINNESOTA/NW IOWA
NATIONAL WEATHER SERVICE SIOUX FALLS SD
900 PM CDT FRI SEP 22 2017

NOTE: "FAIR" INDICATES FEW OR NO CLOUDS BELOW 12,000 FEET WITH NO
SIGNIFICANT WEATHER AND OR OBSTRUCTIONS TO VISIBILITY.


SDZ038>040-050-052>070-230300-
SOUTHEAST SOUTH DAKOTA

CITY           SKY/WX    TMP DP  RH WIND       PRES   REMARKS
BROOKINGS      LGT RAIN  72  65  78 W10       29.80R
CHAMBERLAIN    CLOUDY    63  54  72 NW18      29.81F
HURON          PTCLDY    63  57  81 NW16      29.79S
MADISON        MOCLDY    68  66  94 NW10      29.79R
MITCHELL       PTCLDY    66  62  87 NW7       29.79R
SIOUX FALLS    CLOUDY    83  68  60 SW7       29.78R
WINNER         LGT RAIN  59  52  77 NW12      29.87R
YANKTON        CLOUDY    73  61  65 NW12      29.78R
$$

MNZ071-072-080-081-089-090-097-098-230300-
SOUTHWEST MINNESOTA

CITY           SKY/WX    TMP DP  RH WIND       PRES   REMARKS
FAIRMONT       CLEAR     78  67  68 S13       29.85R
JACKSON        PTCLDY    81  64  57 S14G23    29.84S
LUVERNE        CLOUDY    81  63  54 S13G23    29.78R
MARSHALL       MOCLDY    82  70  66 S12       29.76R
MONTEVIDEO     CLOUDY    84  70  61 SW13G18   29.72R
PIPESTONE      MOCLDY    82  68  61 S15G21    29.79R
REDWOOD FALLS  MOCLDY    84  67  56 S14       29.77R
TRACY          MOCLDY    83  70  63 S13       29.78R
WORTHINGTON    MOCLDY    81  68  64 S18G26    29.81R
$$

IAZ001>003-012>014-020>022-031-032-NEZ013-014-SDZ071-230300-
NORTHWEST IOWA

CITY           SKY/WX    TMP DP  RH WIND       PRES   REMARKS
CHEROKEE       PTCLDY    81  67  62 S14G23    29.84R
DENISON        PTCLDY    81  68  65 S14G21    29.89R
ESTHERVILLE    CLEAR     79  67  66 S15       29.85R
LE MARS        MOCLDY    84  68  58 S21G29    29.78S
ORANGE CITY    MOCLDY    84  70  61 S16G26    29.80R
SHELDON        PTCLDY    81  68  65 S13G25    29.79S
SIOUX CITY     CLOUDY    83  69  62 S16G23    29.79R
SPENCER        CLOUDY    82  67  60 S16G25    29.84R
STORM LAKE     PTCLDY    79  68  69 S13       29.88R
$$

ABBREVIATIONS USED IN REMARKS
   TC - TEMPERATURE IN CELSIUS
  WCI - WIND CHILL INDEX
   HX - HEAT INDEX
  VSB - VISIBILITY





USA.gov is the U.S. government's official web portal to all federal, state and local government web resources and services.